Tracking 17855 objects as of 27-September-2016
HD Live streaming from Space Station
objects crossing your sky now

CRRES DEB (CANISTER)

Track CRRES DEB (CANISTER) now!


NORAD ID: 21590
Int'l Code: 1990-065F
Perigee: 348.3 km
Apogee: 31,253.0 km
Inclination: 20.1 °
Period: 547.6 minutes
Semi major axis: 22171 km
RCS: 0.1267 m2 (medium)
Launch date: July 25, 1990
Source: United States (US)
Launch site: AIR FORCE EASTERN TEST RANGE (AFETR)

Note: This is SATELLITE DEBRIS
Your satellite tracking list
Your tracking list is empty





NASA's NSSDC Master Catalog

Two Line Element Set (TLE):
1 21590U 90065F   16265.95538934  .00000409  00000-0  37141-3 0  9995
2 21590  20.0796 172.6317 6969432 216.3961  65.6644  2.62970223226405
Source of the keplerian elements: AFSPC

N2YO: 417